TimeEDT,TemperatureF,Dew PointF,Humidity,Sea Level PressureIn,VisibilityMPH,Wind Direction,Wind SpeedMPH,Gust SpeedMPH,PrecipitationIn,Events,Conditions,WindDirDegrees,DateUTC
12:00 AM,69.8,59.0,68,30.06,6.2,North,10.4,-,N/A,,Mostly Cloudy,10,2013-03-14 04:00:00
1:00 AM,69.8,60.8,73,30.08,6.2,North,10.4,-,N/A,,Mostly Cloudy,360,2013-03-14 05:00:00
2:00 AM,70,60,64,30.06,9,NNE,11.5,,,,Partly Cloudy,20,2013-03-14 06:00:00
2:00 AM,69.8,60.8,73,30.06,6.2,NNE,11.5,-,N/A,,Mostly Cloudy,20,2013-03-14 06:00:00
5:00 AM,69.8,57.2,64,30.03,6.2,North,11.5,-,N/A,,Mostly Cloudy,10,2013-03-14 09:00:00
6:00 AM,68.0,57.2,68,30.05,6.2,North,11.5,-,N/A,,Mostly Cloudy,10,2013-03-14 10:00:00
7:00 AM,68.0,55.4,64,30.07,6.2,North,11.5,-,N/A,,Mostly Cloudy,360,2013-03-14 11:00:00
8:00 AM,,,,,9,North,10.4,,,,,0,2013-03-14 12:00:00
8:00 AM,68.0,57.2,68,30.08,6.2,North,10.4,-,N/A,,Mostly Cloudy,360,2013-03-14 12:00:00
9:00 AM,68.0,57.2,68,30.08,6.2,North,10.4,-,N/A,,Mostly Cloudy,360,2013-03-14 13:00:00
10:00 AM,68.0,53.6,60,30.13,6.2,NNW,16.1,-,N/A,,Mostly Cloudy,340,2013-03-14 14:00:00
11:00 AM,73,54,42,30.15,8,NNE,18.4,,,,Partly Cloudy,30,2013-03-14 15:00:00
11:00 AM,73.4,55.4,53,30.15,6.2,NNE,18.4,-,N/A,,Mostly Cloudy,30,2013-03-14 15:00:00
12:00 PM,71.6,53.6,53,30.15,6.2,NNE,12.7,-,N/A,,Mostly Cloudy,20,2013-03-14 16:00:00
1:00 PM,71.6,51.8,50,30.14,6.2,NNE,12.7,-,N/A,,Mostly Cloudy,20,2013-03-14 17:00:00
2:00 PM,74,52,36,30.13,9,ESE,13.8,,,,Partly Cloudy,120,2013-03-14 18:00:00
2:00 PM,75.2,51.8,44,30.13,6.2,NNE,13.8,-,N/A,,Mostly Cloudy,20,2013-03-14 18:00:00
3:00 PM,71.6,51.8,50,30.10,6.2,NNE,11.5,-,N/A,,Mostly Cloudy,20,2013-03-14 19:00:00
4:00 PM,71.6,51.8,50,-9999,6.2,NNE,12.7,-,N/A,,Mostly Cloudy,20,2013-03-14 20:00:00
5:00 PM,74,54,39,30.08,9,North,10.4,,,,Partly Cloudy,10,2013-03-14 21:00:00
5:00 PM,73.4,53.6,50,30.08,6.2,North,10.4,-,N/A,,Mostly Cloudy,10,2013-03-14 21:00:00
6:00 PM,69.8,53.6,56,30.09,6.2,NNE,13.8,-,N/A,,Mostly Cloudy,30,2013-03-14 22:00:00
8:00 PM,68,52,47,30.10,9,NNE,11.5,,,,Partly Cloudy,20,2013-03-15 00:00:00
8:00 PM,68.0,51.8,56,30.10,6.2,NNE,11.5,-,N/A,,Mostly Cloudy,20,2013-03-15 00:00:00
9:00 PM,68.0,50.0,52,30.11,6.2,North,6.9,-,N/A,,Mostly Cloudy,360,2013-03-15 01:00:00
10:00 PM,68.0,51.8,56,30.13,-9999.0,North,-9999.0,-,N/A,,Mostly Cloudy,0,2013-03-15 02:00:00
11:00 PM,66.2,51.8,60,30.15,6.2,North,11.5,-,N/A,,Mostly Cloudy,10,2013-03-15 03:00:00